Regional Weather Roundup
Issued by NWS Wakefield, VA

Home | Current Version | Previous Version | Text Only | Print | Product List | Glossary Off
Versions: 1 2 3 4 5 6 7 8 9 10 11 12 13 14 15 16 17 18 19 20 21 22 23 24 25 26 27 28 29 30 31 32 33 34 35 36 37 38 39 40 41 42 43 44 45

000
ASUS41 KAKQ 270410
RWRAKQ

REGIONAL WEATHER ROUNDUP
NATIONAL WEATHER SERVICE WAKEFIELD VA
1100 PM EST FRI DEC 26 2014

Note: "fair" indicates few or no clouds below 12,000 feet with no
significant weather and/or obstructions to visibility. * = Denotes
station may not report precipitation (e.g., rain,snow,etc.),
thunder or fog.

VAZ042-051-052>054-056-270500-
NORTHERN VIRGINIA

CITY           SKY/WX    TMP DP  RH WIND       PRES   REMARKS
WASH NATIONAL  PTCLDY    40  32  73 SW3       30.29S
DULLES         PTCLDY    29  28  96 CALM      30.26F
FORT BELVOIR   CLEAR     30  28  93 CALM      30.28F
QUANTICO       CLEAR     33  30  88 NW7       30.30S
FREDERICKSBRG* CLEAR     32  32  99 CALM      30.27F
STAFFORD*      CLEAR     31  31 100 CALM      30.31F
WARRENTON      CLEAR     30  30 100 CALM      30.26F
CULPEPER*      CLEAR     28  28 100 CALM      30.27F
MANASSAS*      CLEAR     28  28 100 CALM      30.28S
LEESBURG*      PTCLDY    34  32  93 CALM      30.27F
WINCHESTER     PTCLDY    34  28  80 CALM      30.23F
FRONT ROYAL*   PTCLDY    32  28  86 CALM      30.24F
LURAY*         PTCLDY    34  32  93 CALM      30.24F
$$

VAZ048-049-060>072-079>083-270500-
CENTRAL AND SOUTH CENTRAL VIRGINIA

CITY           SKY/WX    TMP DP  RH WIND       PRES   REMARKS
RICHMOND       PTCLDY    37  30  75 S3        30.29F
CHESTERFIELD*  MOCLDY    34  21  60 CALM      30.29F
PETERSBURG*    MOCLDY    33  33  99 CALM      30.30S
HANOVER        CLEAR     31  29  92 CALM      30.29F
TAPPAHANNOCK*  CLEAR     32  29  88 CALM      30.29F
QUINTON*       PTCLDY    32  32  98 CALM      30.29S
CHARLOTTSVILLE PTCLDY    36  31  82 CALM      30.26F
GORDONSVILLE*  PTCLDY    29  28  94 CALM      30.26S
ORANGE*        PTCLDY    32  32 100 CALM      30.28F
LOUISA*        PTCLDY    34  30  86 CALM      30.25F
BUMPASS*       PTCLDY    34  31  90 S7        30.27F
FARMVILLE*     CLOUDY    36  36 100 CALM      30.26F
CREWE*         MOCLDY    35  33  91 CALM      30.27S
FORT PICKETT*  MOCLDY    37  35  90 CALM      30.28S
CHASE CITY*    MOCLDY    40  39  96 CALM      30.29S
CLARKSVILLE*   MOCLDY    39  36  87 SW3       30.28S
SOUTH HILL*    MOCLDY    35  33  95 CALM      30.35S
LAWRENCEVILLE* MOCLDY    38  36  93 CALM      30.29S
EMPORIA*       MOCLDY    34  34 100 CALM      30.32S
$$

VAZ088>098-270500-
SOUTHEAST VIRGINIA

CITY           SKY/WX    TMP DP  RH WIND       PRES   REMARKS
NORFOLK        PTCLDY    41  38  89 CALM      30.30F
VIRGINIA BEACH PTCLDY    36  35  96 CALM      30.30F FOG
NORFOLK NAVAL  PTCLDY    43  38  82 CALM      30.31F
WEST POINT*    CLEAR     33  31  92 CALM      30.31F
SALUDA*        FAIR      36  35  97 S10       30.29F
NEWPORT NEWS   FOG       36  32  85 CALM      30.30F VSB 1/4
LANGLEY AFB    CLEAR     37  37 100 CALM      30.30F FOG
FORT EUSTIS    PTCLDY    37  37 100 E1        30.28F
WILLIAMSBURG*  PTCLDY    37  36  93 SE3       30.30F
HR EXEC AP*    PTCLDY    30  28  93 CALM      30.32F
FRANKLIN*      PTCLDY    36  36 100 CALM      30.31S
WAKEFIELD      PTCLDY    36  33  89 CALM      30.30F
$$

VAZ020-022-025-037-045-270500-
WEST CENTRAL AND SOUTHWEST VIRGINIA

CITY           SKY/WX    TMP DP  RH WIND       PRES   REMARKS
STAUNTON*      PTCLDY    32  27  79 CALM      30.27S
WAYNESBORO*    PTCLDY    37  24  59 CALM      30.25S
HOT SPRINGS VA MOCLDY    42  16  34 W15       30.22S
LYNCHBURG      CLOUDY    38  31  76 CALM      30.28S
DANVILLE       PTCLDY    38  32  79 S3        30.29F
SOUTH BOSTON*  MOCLDY    36  34  92 CALM      30.29S
MARTINSVILLE   CLEAR     33  33 100 CALM      30.30S
ROANOKE        MOCLDY    41  30  65 CALM      30.29R
BLACKSBURG     MOCLDY    33  27  80 CALM      30.29F
DUBLIN*        CLOUDY    38  31  73 CALM      30.27F
MARION*        CLOUDY    38  26  61 CALM      30.29S
HILLSVILLE*    MOCLDY    42  28  59 S7        30.27S
RICHLANDS*     CLOUDY    42  20  40 SE8       30.24S
WISE*          CLOUDY    46  18  31 S3        30.24S
ABINGDON*      CLOUDY    42  28  57 E5        30.27S
$$

MDZ021>025-VAZ099-100-270500-
SOUTHERN MARYLAND AND THE DELMARVA PENINSULA

CITY           SKY/WX    TMP DP  RH WIND       PRES   REMARKS
PATUXENT RIVER FAIR      31  28  89 CALM      30.28F
BAY BRIDGE APT   N/A     39  34  81 S5        30.29R
LEONARDTOWN    FAIR      34  32  93 CALM      30.30S
DOVER          CLEAR     37  32  82 S6        30.25F
GEORGETOWN     CLEAR     35  31  85 SW3       30.28F
EASTON         CLEAR     40  33  77 CALM      30.32F
CAMBRIDGE      CLEAR     34  32  93 CALM      30.28F
SALISBURY      CLEAR     32  28  85 CALM      30.29F
OCEAN CITY     CLEAR     31  29  92 CALM      30.30F
WALLOPS ISLAND CLEAR     32  31  96 CALM      30.30F
ACCOMACK*      CLEAR     34  32  93 S5        30.30F
$$

NCZ012>017-030>032-270500-
NORTH CENTRAL AND EASTERN NORTH CAROLINA

CITY           SKY/WX    TMP DP  RH WIND       PRES   REMARKS
ROANOKE RAPIDS MOCLDY    37  36  93 CALM      30.30F
RALEIGH        MOCLDY    40  33  76 CALM      30.32S
ELIZABETH CITY PTCLDY    42  36  79 CALM      30.32S HAZE
AHOSKIE*       MOCLDY    36  35  94 CALM      30.32S
EDENTON*         N/A     38  36  93 CALM      30.33S
CURRITUCK*     PTCLDY    39  38  94 CALM      30.32F
KILL DEVIL HLS PTCLDY    46  40  77 CALM      30.31S
MANTEO         PTCLDY    37  37 100 CALM      30.33S
CAPE HATTERAS  CLEAR     38  38 100 NW3       30.33S
TARBORO*       MOCLDY    40  38  95 CALM      30.32F
GOLDSBORO      MOCLDY    37  36  98 CALM      30.31S
WASHINGTON     PTCLDY    37  35  91 CALM      30.32F
GREENVILLE     MOCLDY    39  37  93 CALM      30.32F
NEW BERN       CLEAR     39  35  86 CALM      30.34S
WILMINGTON     CLEAR     40  38  93 CALM      30.33S
$$

VAZ048-270500-
ELSEWHERE

CITY           SKY/WX    TMP DP  RH WIND       PRES   REMARKS
HARRISBURG PA  PTCLDY    29  27  92 CALM      30.23F
BALTIMORE      PTCLDY    33  29  85 W3        30.27S
ANNAPOLIS      CLEAR     37  35  92 CALM      30.28F
ANDREWS AFB    CLEAR     33  31  92 S3        30.27F
PHILADELPHIA   PTCLDY    40  31  70 SW8       30.28R
HENDERSON NC   PTCLDY    41  34  75 SW5       30.29S
GREENSBORO     PTCLDY    41  33  73 SW5       30.30R
ROCKY MOUNT    MOCLDY    38  36  92 S3        30.31F
$$

VAZ100-270500-
MARINE

STATION/POSITION TIME  TEMP    WIND        PRES    WAVE   SWELL
                       AIR SEA DIR/SP/G            HT/PER HT/PER
                 (UTC) (F)     (DEG/KT/KT) (MB)    (FT/S) (FT/S)
CAPE MAY NJ      0400   43 46  230/  8/ 11 1024.9F
LEWES DE         0400   40 44  220/  5/  6 1025.3F
15NM E FENWICK I 0400   45 45              1025.6F   2/ 7
OCEAN-CITY-INLET 0400   41 45  260/  2/  3 1025.6F
WACHAPREAGUE VA  0400   40 48  220/  1/  2 1026.2R
THOMAS POINT MD  0400   42 43  200/  8/  8 1026.7F
GOOSES REEF MD   0400   42     VRB  4/  4  1024.8R   0
COVE POINT MD    0400   40     190/  6/  6 1025.4R
SOLOMONS ISLAND  0400      43                N/A
BISHOPS HEAD MD  0400   44 45  170/  5/  6 1025.2F
PINEY POINT MD   0400          150/  3/  4   N/A
POTOMAC MD       0400   42 43  190/  4/  6 1024.8F   0
CAMBRIDGE MD     0400   38 43  170/  2/  3 1025.1F
LEWISETTA VA     0400   40 45     CALM     1025.3F
RAPPAHANNOCK LGT 0400          150/  7/  8 1026.3F
STINGRAY PT      0400   44 44  180/  6/  6 1026.1F   0
YORK RVR RNG VA  0400   44     180/  6/  6 1025.3F
YORKTOWN VA      0400   42 46  160/  1/  2 1025.7F
JAMESTOWN VA     0400   40 46  130/  2/  4   N/A     0
DOMINION TERM VA 0400   45     140/  3/  4 1026.1F
KIPTOPEKE VA     0400      50  150/  5/  5   N/A
CHES BAY BRIDGE  0400   45 45  130/  5/  5 1025.7S
CAPE HENRY VA    0400   46     150/  6/  7 1025.0S
CHESAPEAKE LGHT  0300   48     140/  9/  9 1027.3S
WILLOUBY STN VA  0400   45     170/  5/  5 1026.5R
S CRANEY ISL VA  0400          180/  2/  3 1026.0S
CAPE HENRY BUOY  0400      48                N/A     2/12   2/12
1ST LANDING BUOY 0400   45 45  160/  4/  6 1025.7S   1/ 5
CAPE CHARLES BUO 0400      47                N/A     2/12   2/12
64NM E OF VA BCH 0400   50 52  170/  2/  2 1026.0F   2/ 9   2/ 9
DUCK PIER NC     0400   50 50  240/  4/  5 1025.7F
44100 DUCK FRF   0400      50                N/A     2/13   2/13
44056 DUCK FRF   0400      50                N/A     2/13   2/13
OREGON INLET NC  0400   46 54  150/  4/  4 1027.0R
HATTERAS NC      0400   49 55   CALM  /  1 1027.3F
DIAMOND SHLS NC  0400   55                 1027.1S   3/ 8
CAPE LOOKOUT NC  0300   54      10/  3/  3 1027.0R
$$


USA.gov is the U.S. government's official web portal to all federal, state and local government web resources and services.